Location: Brno
(49.2000°N, 16.6330°E)
Time: 11:20:08
(UTC+02:00)

RESURS DK-1 - Visible Passes

Search period start: 29 August 2015 00:00
Search period end: 08 September 2015 00:00
Orbit: 556 x 567 km, 69.9° (Epoch: 28 August)

Date Brightness Start Highest point End Pass type
(mag) Time Alt. Az. Time Alt. Az. Time Alt. Az.
29 Aug 4.9 01:21:06 16° ENE 01:21:06 16° ENE 01:22:09 10° NE visible
29 Aug 3.5 02:57:03 36° NW 02:57:03 36° NW 03:00:30 10° NNE visible
30 Aug 4.8 01:20:19 17° NE 01:20:19 17° NE 01:21:32 10° NE visible
30 Aug 3.9 02:56:16 29° NW 02:56:16 29° NW 02:59:34 10° NNE visible
31 Aug 4.8 01:19:31 19° NE 01:19:31 19° NE 01:20:50 10° NE visible
31 Aug 4.2 02:55:28 24° NW 02:55:28 24° NW 02:58:35 10° N visible
01 Sep 4.8 01:18:42 20° NE 01:18:42 20° NE 01:20:05 10° NE visible
01 Sep 4.4 02:54:39 20° NW 02:54:39 20° NW 02:57:34 10° N visible
02 Sep 4.8 01:17:52 21° NNE 01:17:52 21° NNE 01:19:17 10° NNE visible
02 Sep 4.7 02:53:48 16° NW 02:53:49 16° NW 02:56:30 10° N visible
03 Sep 4.8 01:17:00 21° NNE 01:17:00 21° NNE 01:18:27 10° NNE visible
03 Sep 4.9 02:52:56 14° NW 02:53:11 14° NW 02:55:20 10° N visible
04 Sep 4.9 01:16:07 21° NNE 01:16:07 21° NNE 01:17:35 10° NNE visible
04 Sep 5.1 02:52:03 11° NW 02:52:34 12° NNW 02:53:59 10° NNW visible
05 Sep 4.9 01:15:13 20° N 01:15:13 20° N 01:16:41 10° NNE visible
06 Sep 5.0 01:14:18 19° N 01:14:18 19° N 01:15:45 10° NNE visible
07 Sep 5.1 01:13:21 18° N 01:13:21 18° N 01:14:47 10° NNE visible
